Location: *
(58.4167°N, 22.5000°E)
Time: 09:56:34
(UTC+00:00)

Resurs 1-4 Rocket - Pass Details

Date: 22 September 2019
Orbit: 800 x 813 km, 98.6° (Epoch: 22 October)

Event Time Altitude Azimuth Distance (km) Brightness Sun altitude
Rises 23:06:53 0° 22° (NNE) 3,332 6.4 -30.8°
Reaches altitude 10° 23:09:44 10° 37° (NE) 2,398 5.3 -30.7°
Maximum altitude 23:13:52 23° 88° (E) 1,675 3.8 -30.6°
Enters shadow 23:14:08 23° 93° (E) 1,678 3.8 -30.6°
